Location: Althorst
(53.6379°N, 10.7715°E)
Time: 14:37:01
(UTC+00:00)

ASTEX 1 - Pass Details

Date: 10 December 2019
Orbit: 719 x 745 km, 92.7° (Epoch: 22 January)

Event Time Altitude Azimuth Distance (km) Brightness Sun altitude
Rises 15:26:36 0° 4° (N) 3,185 6.3 -4.4°
Reaches altitude 10° 15:28:55 10° 2° (N) 2,254 5.6 -4.7°
Maximum altitude 15:33:52 69° 280° (W) 787 3.8 -5.3°
Drops below altitude 10° 15:38:45 10° 198° (SSW) 2,220 6.7 -5.9°
Sets 15:41:02 0° 196° (SSW) 3,134 7.5 -6.2°
